{"data":{"norad_id":57122,"epoch":"2026-09-20T10:37:37.313472Z","epoch_age_seconds":125873,"freshness":"FRESH","line1":"1 57122U 23090X   26263.44279298 -.00000614  00000+0 -12813-4 0  9996","line2":"2 57122  43.0018 262.0041 0000884 268.0414  92.0337 15.27572634180112","mean_motion":15.27572634,"eccentricity":8.84e-5,"inclination_deg":43.0018,"raan_deg":262.0041,"arg_perigee_deg":268.0414,"mean_anomaly_deg":92.0337,"bstar":-1.2813e-5,"rev_number":18011,"period_min":94.267203270676,"perigee_km":482.4646217815,"apogee_km":483.67768338288,"semimajor_km":6861.2081525822,"source":"CELESTRAK","updated_at":"2026-09-21T09:00:33.562223Z"}}